Location: Unspecified
(0.0000°N, 0.0000°E)
Time: 11:19:13
(UTC+00:00)

Vanguard 2 - Pass Details

Date: 23 November 2019
Orbit: 553 x 2938 km, 32.9° (Epoch: 14 December)

Event Time Altitude Azimuth Distance (km) Brightness Sun altitude
Rises 02:43:52 0° 232° (SW) 6,400 12.0 -42.1°
Reaches altitude 10° 02:47:52 10° 230° (SW) 5,557 11.7 -41.2°
Maximum altitude 03:05:47 80° 144° (SE) 2,915 10.2 -37.2°
Drops below altitude 10° 03:21:29 10° 58° (ENE) 4,970 12.0 -33.6°
Sets 03:24:48 0° 58° (ENE) 5,726 12.4 -32.9°
